Flag for Canada Weather past 2 weeks in Charlottetown, Prince Edward Island, Canada

Now
48 °F

Partly sunny.


Feels Like: 42 °F
Forecast: 45 / 65 °F
Wind: 17 mph from Southwest

Location: Charlottetown

Current Time: May 24, 2015 at 8:41:08 AM

Latest Report: May 24, 2015 at 8:00 AM


Visibility: 15 mi

Pressure: 30.05 "Hg

Humidity: 58%

Dew point: 34 °F

Location of CharlottetownLocation

Historic Weather in Charlottetown — Graph

°F

Charlottetown temperature yesterday

Maximum temperature yesterday: 52 °F (at 4:00 PM)
Minimum temperature yesterday: 39 °F (at 6:00 AM)
Average temperature yesterday: 46 °F

Past Weeks' High & Low Weather Summary

 TemperatureHumidityPressure
High73 °F (May 16, 3:00 PM)100% (May 10, 8:00 AM)30.45 "Hg (May 10, 8:00 AM)
Low34 °F (May 9, 7:00 AM)23% (May 15, 3:00 PM)29.41 "Hg (May 20, 6:00 PM)
Average51 °F67%29.98 "Hg
* Reported May 9 7:00 AM — May 24 7:00 AM, Charlottetown, Weather by CustomWeather, © 2015

Note: Actual official high and low records may vary slightly from our data, if they occured in-between our weather recording intervals... More about our weather records

Advertising

Charlottetown weather history for previous 24 hours

 ConditionsComfort  
Time TempWeatherWind HumidityBarometerVisibility
7:00 AM
Sun, May 24
45 °FPartly sunny.16 mph66%30.06 "Hg15 mi
6:00 AM43 °FPassing clouds.12 mph66%30.06 "Hg15 mi
5:00 AM41 °FPassing clouds.12 mph70%30.05 "Hg15 mi
4:00 AM43 °FClear.10 mph71%30.06 "Hg15 mi
3:00 AM45 °FClear.10 mph61%30.06 "Hg15 mi
2:00 AM45 °FClear.12 mph57%30.05 "Hg15 mi
1:00 AM45 °FPassing clouds.9 mph57%30.05 "Hg15 mi
12:00 AM45 °FPassing clouds.10 mph57%30.05 "Hg15 mi
11:00 PM
Sat, May 23
46 °FPassing clouds.6 mph57%30.02 "Hg15 mi
10:00 PM46 °FPartly cloudy.6 mph57%30.01 "Hg15 mi
9:00 PM48 °FBroken clouds.10 mph50%29.99 "Hg15 mi
8:00 PM50 °FBroken clouds.10 mph50%29.96 "Hg15 mi
7:46 PM50 °FBroken clouds.12 mph50%29.95 "Hg15 mi
7:00 PM50 °FBroken clouds.15 mph50%29.92 "Hg15 mi
6:00 PM50 °FBroken clouds.17 mph54%29.91 "Hg15 mi
5:00 PM52 °FBroken clouds.15 mph38%29.90 "Hg15 mi
4:00 PM52 °FBroken clouds.16 mph35%29.90 "Hg15 mi
3:00 PM50 °FBroken clouds.7 mph40%29.89 "Hg15 mi
2:00 PM48 °FPartly sunny.12 mph37%29.89 "Hg15 mi
1:00 PM48 °FPartly sunny.16 mph37%29.88 "Hg15 mi
12:00 PM48 °FMostly cloudy.13 mph43%29.90 "Hg15 mi
11:00 AM48 °FBroken clouds.15 mph50%29.90 "Hg15 mi
10:00 AM46 °FBroken clouds.14 mph57%29.89 "Hg15 mi
9:00 AM45 °FScattered clouds.15 mph61%29.88 "Hg15 mi
8:00 AM43 °FPassing clouds.10 mph71%29.87 "Hg15 mi
Weather by CustomWeather, © 2015

See weather overviewHow to use our weather pages